RH
95 95 94 94 99 99 100 100 97 97 93 88 90 100 92 79 66 48 40 32 36 48 22 20 20 24 24 38 41 44 45 42 35 38 26 28 29 34 36 36 36 37 35 36 36
96 96 96 94 94 97 99 100 99 100 99 87 82 91 83 77 56 36 32 37 38 25 21 22 24 22 29 34 42 43 39 34 32 27 24 25 29 29 33 37 39 38 38 42 40
96 96 95 95 95 95 96 96 90 98 95 90 92 85 83 65 50 28 21 28 35 24 22 24 25 22 25 35 41 42 38 30 24 26 24 24 28 31 34 34 34 36 38 44 44
95 96 95 95 95 98 98 96 94 93 95 93 98 91 78 49 61 15 18 28 36 19 20 22 24 27 30 34 38 39 38 32 29 28 30 31 29 36 41 28 27 35 39 43 43
94 94 95 95 95 95 100 100 98 89 94 96 97 96 69 73 68 22 19 15 16 16 21 23 26 26 28 30 28 42 35 32 32 34 34 33 38 36 37 37 35 39 43 43 42
87 93 94 95 95 91 98 100 99 98 91 86 99 93 57 82 40 16 18 17 16 19 28 26 29 29 32 36 34 35 39 42 42 41 35 39 40 42 38 41 41 44 44 44 43
88 92 94 94 94 97 93 99 100 99 92 75 90 94 59 76 41 17 17 18 20 22 29 30 31 34 37 45 45 48 59 60 59 53 53 45 58 54 42 44 46 46 45 44 43
87 92 93 93 77 80 85 89 93 97 63 85 100 73 83 52 38 29 18 23 23 25 28 35 36 40 40 45 62 68 63 76 59 44 46 48 56 49 41 49 50 47 44 44 44
88 93 94 71 69 66 81 81 91 96 84 96 74 62 80 36 18 19 17 24 25 31 35 34 37 54 54 73 72 73 76 82 69 44 48 44 49 43 50 54 51 53 48 48 52
91 80 76 62 57 62 79 76 90 90 88 80 59 64 54 46 23 20 21 25 36 42 49 46 55 65 65 72 71 58 82 76 78 48 52 54 54 47 48 56 59 62 62 72 77
84 80 76 65 56 65 76 68 76 76 66 71 63 64 51 26 22 24 23 25 35 52 65 60 69 74 65 68 59 61 68 71 64 46 46 51 49 43 39 57 64 66 78 72 64
88 84 79 70 58 79 72 80 82 86 95 72 70 65 57 25 35 27 23 27 40 50 61 56 63 54 54 55 58 64 68 67 53 36 39 42 43 48 56 62 74 79 80 62 56
90 65 89 78 62 91 82 86 92 99 97 81 76 66 24 20 30 31 24 26 35 41 56 51 40 44 49 52 59 61 63 52 38 37 40 49 62 72 66 52 50 55 59 67 70
88 43 86 82 78 96 93 98 99 97 93 71 69 25 18 19 25 29 23 27 30 36 37 44 33 30 41 35 41 38 38 36 40 41 60 47 81 63 71 72 45 45 48 58 67
95 92 70 92 80 99 98 96 99 93 75 45 33 22 24 31 57 56 28 29 53 46 51 61 31 29 31 30 30 34 35 39 42 56 72 73 84 66 72 71 56 43 33 49 68
80 94 89 98 85 88 97 98 98 85 81 53 38 36 63 66 70 44 41 34 36 44 49 54 40 31 31 34 29 43 52 60 76 76 91 80 77 59 71 78 41 37 38 45 69
87 72 94 99 80 77 88 100 90 96 53 86 84 71 61 67 73 69 78 74 72 78 85 70 50 33 31 34 39 47 58 84 85 82 83 82 80 75 63 51 56 53 60 63 76
85 67 83 95 90 85 95 98 96 58 74 67 67 67 64 62 69 67 63 78 70 74 96 97 84 40 37 42 62 46 56 84 91 75 54 74 89 61 49 51 63 69 76 57 69
96 75 67 66 93 97 98 99 84 72 70 72 63 66 87 66 70 78 75 84 77 85 88 99 87 40 37 34 31 51 68 56 69 77 72 52 50 48 44 41 37 59 71 74 78
99 82 92 63 97 99 93 83 75 68 86 68 67 76 78 78 70 86 87 74 86 96 91 94 97 56 44 37 38 42 46 77 80 91 65 42 43 42 43 34 45 64 73 78 81
96 98 89 97 100 100 96 89 82 82 81 87 75 93 71 92 88 96 84 80 97 98 91 93 94 80 53 54 54 48 63 57 75 78 70 51 43 74 53 59 69 75 78 85 90
96 100 97 100 99 100 95 84 77 88 78 82 76 82 88 80 90 95 96 98 100 96 95 87 93 100 81 58 53 44 44 64 93 88 82 70 58 72 62 68 84 79 84 88 91
100 98 99 99 99 99 80 79 73 74 69 80 88 93 96 91 92 88 96 97 94 96 95 86 92 100 76 75 53 70 49 74 85 88 87 77 55 67 67 71 70 84 88 91 92
100 100 99 100 96 86 96 90 90 90 92 88 96 94 95 97 93 97 96 96 95 97 95 82 95 88 90 91 94 88 68 84 90 93 88 86 61 43 48 53 70 84 90 93 94
96 99 92 97 99 92 86 86 93 98 97 86 100 98 93 98 97 95 94 96 90 86 97 94 99 98 89 83 84 92 89 84 96 76 93 69 64 59 61 64 76 87 91 94 92
100 100 98 95 86 92 87 95 90 99 95 98 95 97 98 93 79 92 96 94 93 95 98 97 94 98 96 74 86 95 85 94 86 82 92 86 80 61 66 75 80 88 95 94 93
89 95 100 94 97 95 92 80 75 89 96 85 89 97 98 94 95 93 95 96 97 95 96 96 97 96 93 93 97 99 94 92 91 92 83 92 69 57 57 46 76 89 95 96 95
Wind_Speed
19 19 20 21 22 21 18 17 18 16 15 17 21 19 20 22 23 6 2 4 2 2 3 2 6 6 3 3 3 3 2 3 4 5 3 1 1 1 1 3 2 1 1 1 16
20 20 21 20 21 23 22 18 17 18 16 16 18 21 20 23 16 1 5 3 1 2 2 4 3 3 2 2 2 3 3 7 3 3 3 1 3 3 3 3 3 3 2 3 22
22 22 22 22 22 22 22 22 20 18 17 15 16 15 20 18 5 1 4 1 0 2 3 3 4 3 2 2 3 3 4 3 3 5 2 1 2 3 3 5 6 6 6 9 15
24 24 23 24 23 23 23 22 21 18 18 16 15 11 14 6 5 2 2 0 1 0 2 4 3 3 3 3 3 2 5 4 3 1 2 3 2 2 7 7 3 8 5 10 15
25 25 25 25 24 23 23 22 20 17 15 14 13 8 4 3 7 5 2 1 2 1 2 3 3 3 3 3 3 4 3 2 5 4 5 2 8 5 9 8 3 3 8 14 13
23 26 26 26 25 24 24 23 20 17 14 12 9 8 1 4 3 4 2 1 3 3 3 3 4 3 2 3 4 2 3 6 6 7 4 5 4 6 4 1 6 6 9 10 11
24 24 26 27 26 25 24 23 20 19 14 10 8 5 1 11 4 5 2 2 2 2 3 3 5 3 4 2 1 1 5 5 4 2 4 3 6 8 5 2 5 6 6 7 7
24 25 26 28 28 26 25 25 20 15 12 6 5 3 5 4 5 7 5 3 3 3 4 5 3 3 1 0 2 1 1 3 1 1 0 3 6 4 0 4 6 6 6 7 6
24 25 26 28 30 28 26 24 15 7 2 3 4 1 7 3 3 5 6 5 5 5 5 6 4 3 3 3 2 2 3 3 6 2 2 4 6 4 1 4 6 7 9 7 5
23 25 27 28 29 28 24 19 5 2 3 2 2 2 5 3 3 4 6 6 3 5 3 4 4 3 2 2 4 3 3 3 5 1 0 4 16 12 7 6 9 5 6 5 4
24 25 26 28 27 26 19 7 4 3 2 6 3 3 3 0 3 2 4 5 3 5 2 2 2 5 7 6 1 1 3 5 4 3 3 8 15 14 7 6 8 7 6 4 2
25 26 26 27 28 19 7 4 1 2 6 7 7 5 7 2 2 1 4 4 3 3 3 3 5 5 2 3 3 3 3 5 5 2 3 6 17 14 3 0 2 4 6 3 2
25 23 25 27 26 5 3 3 1 3 3 6 5 4 3 5 4 5 5 4 3 3 4 5 3 4 4 4 4 3 4 3 5 4 2 7 6 4 1 2 6 8 5 1 3
28 25 22 23 9 9 2 1 1 3 3 5 3 3 3 3 1 1 0 2 1 4 5 5 3 3 3 4 6 3 2 2 2 3 3 4 5 4 1 1 3 4 1 4 5
29 27 21 14 14 6 3 4 3 2 3 2 3 2 1 3 5 1 2 3 4 4 4 4 3 4 3 4 5 2 2 1 0 2 2 1 1 5 1 2 2 3 4 6 5
30 26 21 11 5 10 9 6 5 5 7 3 4 4 3 1 1 2 2 4 2 1 1 5 3 2 2 2 2 3 3 4 3 2 1 3 3 3 1 3 2 2 6 7 9
22 19 25 15 4 5 6 2 2 4 2 5 4 4 2 3 1 3 2 3 1 3 3 3 1 1 1 2 2 2 3 3 4 3 3 2 2 6 1 3 5 5 7 9 9
22 11 20 18 11 8 3 1 5 4 5 1 4 4 4 5 1 1 4 1 3 3 3 2 3 3 1 1 2 2 2 3 4 2 3 1 5 3 2 2 2 4 5 8 9
20 12 11 21 18 10 2 4 7 4 5 2 2 4 3 2 4 2 2 4 2 1 4 2 3 2 3 1 1 1 1 1 3 1 1 3 5 2 3 2 2 6 6 9 10
8 11 8 12 13 7 5 10 5 5 3 3 4 1 5 2 3 3 0 0 3 2 1 1 3 2 1 2 4 2 3 2 2 1 4 4 4 2 2 2 6 7 8 10 10
4 3 2 12 14 2 4 5 5 6 6 3 1 1 2 4 3 2 3 1 2 3 2 3 2 4 1 4 5 2 1 2 1 3 3 3 3 2 5 4 7 7 8 9 11
2 3 5 14 3 1 4 5 2 3 3 2 2 2 3 3 2 1 3 2 3 2 3 2 3 3 5 1 1 0 2 5 3 3 1 1 5 1 2 4 3 8 8 9 9
2 2 2 3 3 2 2 2 1 2 5 3 1 2 1 2 1 1 3 4 6 4 4 4 1 3 6 3 2 2 4 3 4 1 5 3 3 2 2 3 3 6 8 10 11
2 2 1 0 1 3 3 2 0 5 3 4 2 3 2 2 1 2 2 3 5 3 6 6 3 6 5 3 2 3 3 6 7 3 4 7 4 4 5 3 6 6 6 9 9
1 2 3 2 3 3 1 2 4 3 3 2 2 3 3 3 2 2 1 3 3 2 2 4 4 4 6 11 10 10 7 10 13 7 7 2 5 4 5 4 5 5 7 9 10
3 2 1 3 0 5 6 4 8 2 5 2 3 5 3 3 4 4 2 1 3 3 3 1 2 2 5 10 5 10 12 13 17 14 12 13 19 3 2 2 4 5 6 9 10
3 3 2 3 3 3 4 5 5 8 2 0 6 4 3 3 3 2 2 1 2 5 4 3 2 1 4 2 5 4 5 9 5 5 8 8 3 3 3 3 2 5 5 8 10
Wind_Direction
357 353 349 344 338 333 325 307 305 307 312 323 323 327 330 334 331 329 197 127 110 334 3 118 76 118 96 91 92 129 93 228 238 172 235 228 210 135 143 137 231 241 199 25 165
356 355 351 349 341 336 331 323 315 303 300 312 315 318 331 333 326 12 138 119 61 11 76 85 100 117 68 93 73 111 167 220 220 203 218 216 199 188 171 199 224 251 217 175 168
355 354 353 347 341 339 332 326 316 311 302 297 302 314 326 333 332 193 131 95 32 44 88 110 114 97 121 123 181 164 211 210 246 233 241 243 247 192 183 251 214 210 191 175 177
350 349 351 347 343 341 333 325 318 315 310 298 298 308 325 332 308 160 134 193 213 319 106 102 71 91 149 201 171 202 239 216 262 62 163 219 193 233 205 237 203 214 172 172 182
347 344 346 345 343 339 338 334 321 309 307 310 300 297 335 9 254 182 182 206 175 141 111 128 135 145 194 191 164 216 252 223 263 288 255 280 242 230 248 241 227 129 169 184 188
346 340 342 341 340 339 335 334 329 314 302 298 306 336 124 277 191 184 162 169 155 138 128 130 159 173 161 221 197 195 267 265 273 254 241 213 259 142 255 217 193 189 200 192 188
339 338 338 338 339 338 334 330 328 320 302 291 289 298 182 246 203 202 209 179 162 152 135 141 137 137 150 243 322 310 308 312 233 236 216 157 273 231 253 171 208 216 212 194 188
336 336 336 336 337 336 335 328 318 316 304 294 237 229 241 249 225 221 203 167 160 126 122 131 132 102 160 151 22 312 59 315 214 138 163 157 263 255 352 184 228 217 204 194 188
332 331 333 335 336 335 333 333 335 314 320 218 228 193 268 284 233 204 186 157 136 121 107 108 82 91 44 112 344 356 245 227 306 181 153 186 265 262 158 201 239 217 211 200 175
323 327 329 332 335 335 331 332 358 52 88 123 51 35 277 237 164 148 157 150 125 128 78 56 57 89 64 133 230 189 235 242 252 269 203 257 263 267 245 212 246 231 204 183 179
321 320 325 328 332 333 337 334 11 9 71 197 204 248 284 141 159 140 156 116 102 70 127 29 88 217 212 205 150 159 211 245 249 261 275 252 271 273 286 223 244 226 183 181 239
316 313 320 323 330 327 342 72 149 208 307 251 237 265 258 222 208 200 171 138 134 131 129 30 244 235 200 166 209 212 235 257 275 255 208 282 283 283 303 346 300 257 150 119 342
311 308 312 319 326 315 21 120 173 195 297 290 199 193 202 158 206 197 167 153 137 139 174 183 200 110 166 184 195 217 209 232 247 320 252 302 284 338 23 93 83 87 118 86 298
308 310 310 317 309 326 254 104 265 165 9 274 223 243 139 138 182 205 194 143 98 180 168 224 261 210 171 206 162 253 196 230 272 14 270 20 288 300 292 311 137 135 5 320 312
339 303 303 303 299 296 285 317 174 140 355 170 166 146 104 168 132 357 352 34 178 174 120 256 184 206 215 216 177 204 80 24 360 124 360 344 94 270 5 324 150 173 295 318 337
315 325 302 275 263 270 291 304 146 52 249 198 143 173 135 32 77 107 43 44 66 115 343 248 280 218 200 72 68 120 97 47 45 97 352 242 168 279 204 199 144 244 294 330 331
312 292 311 259 238 232 294 221 140 194 296 186 179 167 134 167 122 131 88 31 141 47 347 313 212 89 137 125 59 74 72 318 336 14 227 236 192 256 179 181 190 246 318 331 309
306 253 298 265 273 231 145 187 190 251 243 89 123 107 171 172 32 95 106 30 36 73 91 67 321 167 57 113 159 146 165 162 253 300 296 187 240 260 121 155 211 270 287 300 312
306 253 257 281 253 229 196 207 198 222 302 185 73 142 155 124 126 94 105 160 91 111 158 115 273 66 45 100 101 176 170 180 100 158 326 240 273 103 164 177 278 316 333 317 319
271 270 239 247 203 165 220 223 194 195 335 313 194 122 178 129 156 96 236 38 124 67 30 192 307 25 63 105 39 141 151 70 46 283 282 271 265 238 163 245 315 322 321 319 320
291 256 272 167 160 196 209 238 211 171 130 329 191 163 135 144 158 189 162 118 121 126 66 120 94 282 328 201 175 133 172 83 101 167 205 293 275 257 174 229 282 310 312 307 312
286 256 171 152 175 188 217 200 201 148 115 171 115 232 125 173 181 144 121 99 121 113 101 115 139 259 232 17 350 125 165 161 198 236 197 283 274 351 219 250 281 296 303 307 301
272 265 213 147 213 211 276 275 238 132 154 129 120 65 70 160 99 170 98 143 157 136 153 180 332 338 346 17 22 203 196 147 110 120 208 180 258 181 257 283 271 280 309 317 308
318 276 231 320 205 167 164 245 160 1 84 77 127 105 109 173 56 166 141 168 169 135 193 176 160 196 211 199 149 239 213 186 188 194 173 235 258 199 300 307 310 313 314 311 308
274 281 339 226 239 145 198 144 179 161 58 131 142 180 157 160 113 198 153 132 147 92 72 140 217 179 256 263 248 245 216 190 209 212 211 260 237 235 262 246 277 291 310 321 325
290 283 17 288 13 145 183 227 183 158 156 194 146 154 151 137 169 188 125 144 203 31 183 340 262 200 273 257 234 253 245 221 218 229 243 274 286 178 239 242 303 320 328 324 326
259 241 94 315 331 134 200 209 192 133 337 360 147 123 140 131 125 100 103 85 150 158 195 183 180 22 268 327 299 273 235 216 192 203 218 229 250 156 232 238 297 318 332 315 316